Location: Observatoire de Paris
(48.8363°N, 2.3365°E)
Time: 17:13:04
(UTC+01:00)

Vanguard 3 - Pass Details

Date: 05 August 2021
Orbit: 510 x 3260 km, 33.4° (Epoch: 23 September)

Event Time Altitude Azimuth Distance (km) Brightness Sun altitude
Rises 00:06:52 0° 275° (W) 6,929 12.1 -23.3°
Reaches altitude 10° 00:12:58 10° 263° (W) 6,114 11.6 -23.5°
Maximum altitude 00:25:46 22° 222° (SW) 5,161 10.8 -23.8°
Enters shadow 00:29:59 20° 206° (SSW) 5,173 10.7 -23.9°
